Vilalleons (Osona)





Hora UTC 17:15
Temperatura 14.3 ºC
Humedad 72.0 %
Presión 1011.3 hPa
Pluja 0.0 mm
Velocidad viento 3.2 km/h
Dirección viento ENE

Datos diarios 2024-04-16



Hora UTC (invierno +1h; verano +2h)
Temperatura (ºC) Humedad (%) Presión (hPa) Velocidad viento (km/h) Precipitación (mm)
Hora UTC Aire Humedad Presión Vel. Dir. Vel. Max Dir. Intent. máx 5 min.
00:05 9.3 78.0 1016.4 1.6 ESE 1.6 0.0
00:10 9.2 79.0 1016.4 1.6 ESE 3.2 0.0
00:15 9.1 79.0 1016.3 0.0 ESE 3.2 0.0
00:20 9.0 79.0 1016.2 1.6 ESE 4.8 0.0
00:25 8.8 80.0 1016.2 4.8 ESE 4.8 0.0
00:30 8.8 80.0 1016.2 3.2 ESE 4.8 0.0
00:35 8.7 80.0 1016.1 1.6 ESE 4.8 0.0
00:40 8.6 81.0 1016.2 3.2 ESE 4.8 0.0
00:45 8.4 81.0 1016.1 0.0 ESE 4.8 0.0
00:50 8.3 81.0 1016.1 1.6 ESE 3.2 0.0
00:55 8.2 81.0 1015.9 3.2 ESE 3.2 0.0
01:00 8.0 82.0 1015.9 3.2 ESE 4.8 0.0
01:05 8.0 82.0 1015.8 4.8 ESE 4.8 0.0
01:10 8.0 83.0 1015.8 1.6 ESE 4.8 0.0
01:15 8.0 83.0 1015.8 0.0 ESE 3.2 0.0
01:20 7.9 83.0 1015.7 1.6 ESE 3.2 0.0
01:25 7.9 83.0 1015.7 1.6 ESE 4.8 0.0
01:30 7.9 83.0 1015.8 3.2 SW 4.8 0.0
01:35 8.1 86.0 1015.6 1.6 SSE 8.0 0.0
01:40 8.4 85.0 1015.5 0.0 SSW 8.0 0.0
01:45 8.4 84.0 1015.5 0.0 SSW 1.6 0.0
01:50 8.6 84.0 1015.5 0.0 SSW 0.0 0.0
01:55 8.5 84.0 1015.6 0.0 SSW 0.0 0.0
02:00 8.5 85.0 1015.4 0.0 SSW 0.0 0.0
02:05 8.4 84.0 1015.3 0.0 SSW 0.0 0.0
02:10 8.3 85.0 1015.4 0.0 SSW 0.0 0.0
02:15 8.3 85.0 1015.4 0.0 SSW 0.0 0.0
02:20 8.2 85.0 1015.3 0.0 S 0.0 0.0
02:25 8.1 86.0 1015.3 0.0 S 0.0 0.0
02:30 8.1 86.0 1015.1 0.0 S 0.0 0.0
02:35 8.0 86.0 1015.1 0.0 S 0.0 0.0
02:40 7.9 86.0 1015.0 0.0 S 0.0 0.0
02:45 7.9 87.0 1015.1 0.0 S 0.0 0.0
02:50 7.8 86.0 1015.1 0.0 S 0.0 0.0
02:55 7.8 86.0 1015.1 0.0 S 0.0 0.0
03:00 7.7 87.0 1015.2 0.0 S 0.0 0.0
03:05 7.6 87.0 1015.1 0.0 S 0.0 0.0
03:10 7.6 87.0 1015.2 0.0 S 0.0 0.0
03:15 7.4 87.0 1015.2 0.0 S 0.0 0.0
03:20 7.4 88.0 1015.3 0.0 S 0.0 0.0
03:25 7.3 88.0 1015.3 0.0 S 0.0 0.0
03:30 7.3 88.0 1015.2 0.0 S 0.0 0.0
03:35 7.3 88.0 1015.2 0.0 S 0.0 0.0
03:40 7.2 88.0 1015.0 0.0 S 0.0 0.0
03:45 7.2 88.0 1014.9 0.0 S 0.0 0.0
03:50 7.1 88.0 1014.8 0.0 S 0.0 0.0
03:55 7.0 88.0 1014.7 0.0 S 0.0 0.0
04:00 6.9 89.0 1014.8 0.0 S 0.0 0.0
04:05 6.9 88.0 1014.6 0.0 S 0.0 0.0
04:10 6.7 88.0 1014.6 0.0 S 0.0 0.0
04:15 6.7 89.0 1014.7 0.0 S 0.0 0.0
04:20 6.6 89.0 1014.8 0.0 S 0.0 0.0
04:25 6.4 89.0 1014.7 0.0 N 0.0 0.0
04:30 6.3 89.0 1014.7 0.0 N 0.0 0.0
04:35 6.3 89.0 1014.5 0.0 N 0.0 0.0
04:40 6.1 89.0 1014.3 0.0 S 0.0 0.0
04:45 6.1 89.0 1014.5 0.0 S 0.0 0.0
04:50 6.0 89.0 1014.6 0.0 S 0.0 0.0
04:55 5.9 89.0 1014.6 0.0 S 0.0 0.0
05:00 5.9 89.0 1014.7 0.0 S 0.0 0.0
05:05 5.9 90.0 1014.8 0.0 S 0.0 0.0
05:10 5.9 90.0 1015.0 0.0 S 0.0 0.0
05:15 6.1 91.0 1015.0 0.0 S 0.0 0.0
05:20 6.3 91.0 1015.0 0.0 S 0.0 0.0
05:25 6.4 91.0 1014.8 0.0 S 0.0 0.0
05:30 6.6 92.0 1014.7 0.0 S 0.0 0.0
05:35 6.7 92.0 1014.6 0.0 S 0.0 0.0
05:40 6.9 92.0 1014.9 0.0 S 0.0 0.0
05:45 7.2 92.0 1014.6 0.0 S 0.0 0.0
05:50 7.4 90.0 1014.8 0.0 NNE 0.0 0.0
05:55 7.6 89.0 1014.7 0.0 NNE 0.0 0.0
06:00 7.7 87.0 1014.8 0.0 N 6.4 0.0
06:05 7.9 87.0 1014.6 0.0 N 6.4 0.0
06:10 8.0 86.0 1014.7 0.0 N 1.6 0.0
06:15 8.2 85.0 1014.8 0.0 NNE 4.8 0.0
06:20 8.3 85.0 1014.8 0.0 N 4.8 0.0
06:25 8.3 84.0 1014.8 1.6 N 4.8 0.0
06:30 8.3 84.0 1014.8 1.6 N 4.8 0.0
06:35 8.3 82.0 1014.7 3.2 WSW 4.8 0.0
06:40 8.4 81.0 1014.8 0.0 WSW 4.8 0.0
06:45 8.6 81.0 1014.6 0.0 NE 4.8 0.0
06:50 8.8 81.0 1014.6 1.6 WNW 4.8 0.0
06:55 8.9 79.0 1014.7 0.0 W 4.8 0.0
07:00 9.3 80.0 1014.5 3.2 NNW 6.4 0.0
07:05 9.3 79.0 1014.5 1.6 NNW 6.4 0.0
07:10 9.4 79.0 1014.5 1.6 W 4.8 0.0
07:15 9.7 79.0 1014.5 3.2 N 6.4 0.0
07:20 9.8 79.0 1014.5 3.2 N 6.4 0.0
07:25 10.0 78.0 1014.6 0.0 NW 6.4 0.0
07:30 10.2 77.0 1014.4 4.8 WSW 6.4 0.0
07:35 10.3 76.0 1014.6 1.6 NNW 8.0 0.0
07:40 10.6 75.0 1014.7 3.2 NNW 8.0 0.0
07:45 10.8 75.0 1014.8 0.0 NNW 8.0 0.0
07:50 10.9 75.0 1014.7 1.6 NW 9.7 0.0
07:55 11.0 73.0 1015.0 4.8 NW 9.7 0.0
08:00 11.2 73.0 1015.0 1.6 NW 6.4 0.0
08:05 11.2 72.0 1014.9 3.2 N 6.4 0.0
08:10 11.4 72.0 1014.9 1.6 NNW 6.4 0.0
08:15 11.7 72.0 1014.9 1.6 NNW 6.4 0.0
08:20 11.9 71.0 1014.9 6.4 NW 6.4 0.0
08:25 12.2 69.0 1015.0 3.2 NE 9.7 0.0
08:30 12.2 70.0 1015.0 3.2 NNW 8.0 0.0
08:35 12.6 71.0 1015.0 4.8 W 12.9 0.0
08:40 12.9 69.0 1014.6 1.6 NW 11.3 0.0
08:45 12.9 68.0 1015.0 3.2 NW 8.0 0.0
08:50 13.2 69.0 1014.9 4.8 NW 8.0 0.0
08:55 13.5 71.0 1014.8 1.6 SW 8.0 0.0
09:00 14.1 67.0 1015.0 0.0 ENE 8.0 0.0
09:05 14.3 65.0 1015.0 6.4 NE 8.0 0.0
09:10 14.6 65.0 1015.2 4.8 N 6.4 0.0
09:15 14.4 67.0 1015.2 6.4 WNW 8.0 0.0
09:20 14.4 65.0 1015.2 4.8 W 9.7 0.0
09:25 14.3 65.0 1015.4 1.6 W 14.5 0.0
09:30 14.4 66.0 1015.4 3.2 NW 14.5 0.0
09:35 14.9 69.0 1015.3 3.2 W 8.0 0.0
09:40 15.5 66.0 1015.2 6.4 SW 11.3 0.0
09:45 15.6 68.0 1015.3 0.0 SSW 11.3 0.0
09:50 15.8 66.0 1015.4 1.6 W 9.7 0.0
09:55 15.8 66.0 1015.4 1.6 WSW 9.7 0.0
10:00 16.3 64.0 1015.2 6.4 SSE 11.3 0.0
10:05 16.7 65.0 1015.1 3.2 WSW 12.9 0.0
10:10 16.8 66.0 1015.2 6.4 WNW 16.1 0.0
10:15 16.3 62.0 1015.2 1.6 N 16.1 0.0
10:20 16.4 63.0 1015.3 6.4 N 8.0 0.0
10:25 16.4 62.0 1015.1 6.4 NW 12.9 0.0
10:30 16.2 64.0 1014.9 3.2 NNE 9.7 0.0
10:35 16.5 65.0 1015.0 3.2 W 8.0 0.0
10:40 16.9 64.0 1015.0 6.4 NW 8.0 0.0
10:45 16.7 63.0 1014.8 4.8 NNE 12.9 0.0
10:50 16.7 64.0 1014.8 3.2 WNW 9.7 0.0
10:55 17.2 62.0 1014.9 3.2 SSE 11.3 0.0
11:00 17.6 59.0 1014.9 3.2 NNW 8.0 0.0
11:05 17.5 60.0 1014.7 9.7 NNW 12.9 0.0
11:10 17.6 61.0 1014.7 3.2 SSW 12.9 0.0
11:15 18.2 61.0 1014.5 1.6 W 8.0 0.0
11:20 18.1 57.0 1014.7 4.8 NNW 12.9 0.0
11:25 17.6 59.0 1014.7 1.6 WNW 12.9 0.0
11:30 17.4 61.0 1014.5 4.8 NNE 12.9 0.0
11:35 17.2 60.0 1014.0 3.2 NNE 6.4 0.0
11:40 17.4 60.0 1013.9 4.8 NW 8.0 0.0
11:45 17.7 60.0 1014.2 8.0 NNW 12.9 0.0
11:50 18.4 59.0 1014.0 4.8 NNW 11.3 0.0
11:55 19.3 59.0 1013.9 4.8 SSW 12.9 0.0
12:00 19.8 53.0 1014.0 4.8 WNW 14.5 0.0
12:05 19.9 52.0 1013.9 0.0 NW 14.5 0.0
12:10 20.2 58.0 1013.9 1.6 SW 9.7 0.0
12:15 20.3 55.0 1013.9 4.8 S 12.9 0.0
12:20 20.5 55.0 1013.9 9.7 SSW 11.3 0.0
12:25 20.6 53.0 1013.8 6.4 S 11.3 0.0
12:30 20.7 53.0 1013.6 6.4 WSW 12.9 0.0
12:35 20.8 50.0 1013.6 8.0 SW 19.3 0.0
12:40 20.4 48.0 1013.7 3.2 W 19.3 0.0
12:45 20.8 54.0 1013.4 4.8 SSW 17.7 0.0
12:50 21.2 47.0 1013.2 1.6 SSW 11.3 0.0
12:55 21.2 48.0 1013.3 6.4 WSW 24.1 0.0
13:00 21.4 49.0 1013.2 4.8 SW 24.1 0.0
13:05 21.6 46.0 1013.1 6.4 WSW 14.5 0.0
13:10 21.3 48.0 1012.8 6.4 WSW 14.5 0.0
13:15 21.3 46.0 1012.8 8.0 SW 20.9 0.0
13:20 21.7 48.0 1012.9 1.6 SW 20.9 0.0
13:25 21.6 45.0 1013.0 8.0 SW 14.5 0.0
13:30 21.3 49.0 1012.7 8.0 S 14.5 0.0
13:35 21.4 46.0 1012.4 4.8 W 16.1 0.0
13:40 21.3 44.0 1012.3 3.2 SW 19.3 0.0
13:45 21.3 44.0 1012.2 3.2 SW 14.5 0.0
13:50 21.7 48.0 1012.1 4.8 W 12.9 0.0
13:55 21.8 48.0 1011.7 11.3 SW 19.3 0.0
14:00 21.6 50.0 1011.8 12.9 SW 17.7 0.0
14:05 21.6 49.0 1011.7 3.2 SSW 17.7 0.0
14:10 21.7 48.0 1011.8 4.8 W 19.3 0.0
14:15 21.7 51.0 1011.7 9.7 W 19.3 0.0
14:20 21.8 51.0 1011.7 4.8 WSW 11.3 0.0
14:25 21.7 51.0 1011.5 6.4 SW 19.3 0.0
14:30 21.6 51.0 1011.5 8.0 SW 19.3 0.0
14:35 21.5 51.0 1011.5 6.4 SSW 16.1 0.0
14:40 21.3 52.0 1011.4 4.8 SSE 16.1 0.0
14:45 21.2 52.0 1011.2 11.3 WNW 16.1 0.0
14:50 20.8 51.0 1011.1 6.4 SW 16.1 0.0
14:55 20.8 51.0 1011.2 8.0 SSW 14.5 0.0
15:00 20.8 53.0 1011.0 6.4 SW 17.7 0.0
15:05 20.8 52.0 1010.9 3.2 SSW 17.7 0.0
15:10 20.9 52.0 1010.8 8.0 SSW 12.9 0.0
15:15 20.8 51.0 1010.8 6.4 ESE 12.9 0.0
15:20 20.8 52.0 1010.7 4.8 SE 14.5 0.0
15:25 20.8 52.0 1010.8 1.6 SSW 14.5 0.0
15:30 20.7 51.0 1010.9 4.8 SW 16.1 0.0
15:35 20.3 53.0 1010.9 17.7 SW 17.7 0.0
15:40 20.2 53.0 1010.8 4.8 WSW 17.7 0.0
15:45 20.2 54.0 1010.8 9.7 SSE 9.7 0.0
15:50 19.6 54.0 1010.9 4.8 SSE 9.7 0.0
15:55 19.1 54.0 1010.8 3.2 SE 9.7 0.0
16:00 18.7 55.0 1010.7 3.2 S 12.9 0.0
16:05 17.6 61.0 1010.7 3.2 NE 17.7 0.0
16:10 16.4 65.0 1011.0 8.0 SSE 17.7 0.0
16:15 15.9 67.0 1010.7 11.3 ESE 17.7 0.0
16:20 15.6 68.0 1010.9 1.6 ESE 17.7 0.0
16:25 15.3 69.0 1010.9 14.5 SE 16.1 0.0
16:30 15.1 69.0 1011.0 6.4 SE 17.7 0.0
16:35 15.0 70.0 1011.0 4.8 ENE 16.1 0.0
16:40 14.9 71.0 1010.8 1.6 SE 16.1 0.0
16:45 14.8 71.0 1010.9 9.7 ESE 14.5 0.0
16:50 14.8 71.0 1011.0 6.4 ESE 14.5 0.0
16:55 14.7 71.0 1011.0 4.8 E 12.9 0.0
17:00 14.6 71.0 1011.1 3.2 ESE 14.5 0.0
17:05 14.5 71.0 1011.2 4.8 ESE 14.5 0.0
17:10 14.4 71.0 1011.2 3.2 ESE 14.5 0.0
17:15 14.3 72.0 1011.3 3.2 ENE 11.3 0.0
Máxima 21.8 92.0 1016.4 17.7 SW 24.1 0.0
Mínima 5.8 44.0 1010.7
Total 0.0